Regional Weather Roundup
Issued by NWS

Home | Current Version | Previous Version | Text Only | Print | Product List | Glossary On
Versions: 1 2 3 4 5 6 7 8 9 10 11 12 13 14 15 16 17 18 19 20 21 22 23 24 25 26 27 28 29 30 31 32 33 34 35 36 37 38 39 40 41 42 43 44 45 46 47 48 49 50
000
ASUS43 KDTX 230410
RWRMI
MICHIGAN HOURLY REGIONAL WEATHER ROUNDUP
NATIONAL WEATHER SERVICE DETROIT/PONTIAC MI
1200 AM EDT MON APR 23 2018

NOTE: "FAIR" INDICATES FEW OR NO CLOUDS BELOW 12,000 FEET WITH NO
SIGNIFICANT WEATHER AND/OR OBSTRUCTION TO VISIBILITY.

MIZ047>049-052>055-059>063-066>070-074>076-081>083-230500-
SOUTHEAST LOWER MICHIGAN

CITY           SKY/WX    TMP DP  RH WIND       PRES   REMARKS
ADRIAN         FAIR      41  23  48 NE7       30.30F
ALMA           FAIR      41  32  69 E7        30.32F
ANN ARBOR      FAIR      47  23  38 NE3       30.31F
BAD AXE        FAIR      42  22  44 CALM      30.36F
CARO           FAIR      42  23  48 E3        30.34F
DETROIT CITY   FAIR      45  25  45 NE5       30.33F
DETROIT        FAIR      48  25  40 NE6       30.32F
FLINT          FAIR      45  27  49 E9        30.34S
GROSSE ILE     FAIR      44  27  50 NE8       30.30F
HILLSDALE      FAIR      43  23  45 E10       30.28S
HOWELL         FAIR      42  28  56 NE5       30.32S

CITY           SKY/WX    TMP DP  RH WIND       PRES   REMARKS
JACKSON        FAIR      44  25  47 CALM      30.30F
LAMBERTVILLE   FAIR      47  25  42 E6        30.29F
LANSING        FAIR      49  25  39 SE8       30.31F
LAPEER         FAIR      43  23  45 CALM      30.35S
MASON          FAIR      50  19  29 SE3       30.31F
MONROE         FAIR      44  18  35 NE5       30.29F
MT. CLEMENS    FAIR      42  26  51 N6          N/A
PONTIAC        FAIR      45  26  47 NE5       30.32F
PORT HOPE        N/A     38  29  70 SE5       30.35F WCI  34
PORT HURON     FAIR      36  28  75 CALM      30.34F
TRI CITIES     FAIR      44  31  60 E6        30.34F
MIDLAND        FAIR      41  32  69 E5        30.33F
TROY           FAIR      47  22  36 NE8       30.34F
SAGINAW HB     FAIR      43  28  56 CALM      30.34S
$$
MIZ043>046-050>051-056>058-064>065-071>073-077>080-230500-
SOUTHWEST LOWER MICHIGAN

CITY           SKY/WX    TMP DP  RH WIND       PRES   REMARKS
BATTLE CREEK   FAIR      49  24  37 E3        30.29F
BENTON HARBOR  FAIR      47  23  38 E6        30.26F
BIG RAPIDS     FAIR      46  21  37 S7        30.31F
COLDWATER      FAIR      46  22  39 E6        30.27F
FREMONT        FAIR      50   7  18 E5        30.30S
HOLLAND        FAIR      45  30  55 E6        30.28F
GRAND RAPIDS   FAIR      46  28  49 NE8       30.29F
IONIA          FAIR      47  29  50 E5        30.30F
KALAMAZOO      FAIR      49  24  37 E5        30.28F
LUDINGTON      FAIR      34  28  81 CALM      30.30F
MARSHALL       FAIR      40  25  54 CALM      30.28F
MOUNT PLEASANT FAIR      45  28  49 E5        30.32F
MUSKEGON       FAIR      51  27  39 E9        30.29F
SOUTH HAVEN    FAIR      48  26  42 SE3       30.27F
$$
MIZ016>042-230500-
NORTHERN LOWER MICHIGAN

CITY           SKY/WX    TMP DP  RH WIND       PRES   REMARKS
ALPENA         FAIR      32  27  81 CALM      30.37S
BEAVER ISLAND  FAIR      36  25  63 SE3       30.33S
BELLAIRE       FAIR      32  27  82 CALM      30.34S
CADILLAC       FAIR      44  23  43 E3        30.31S
CHARLEVOIX     FAIR      41  23  49 SE3       30.35S
FRANKFORT      FAIR      35  27  73 CALM      30.31F
GAYLORD        FAIR      42  17  36 S5        30.33F
GRAYLING       FAIR      31  21  66 CALM      30.33F
HARBOR SPRINGS FAIR      42  20  40 NE5       30.34S
HOUGHTON LAKE  FAIR      40  23  50 E6        30.33F
MANISTEE       FAIR      34  25  69 CALM      30.31S
OSCODA         FAIR      30  22  72 CALM      30.37S
PELLSTON       FAIR      33  21  61 CALM      30.34F
ROGERS CITY    FAIR      41  24  50 S7        30.36F
TRAVERSE CITY  FAIR      37  30  75 CALM      30.32R
$$
MIZ007>008-015-230500-
EASTERN UPPER MICHIGAN

CITY           SKY/WX    TMP DP  RH WIND       PRES   REMARKS
KINROSS        FAIR      39  20  46 SE10      30.35S WCI  32
MACKINAC ISLAN FAIR      47  17  30 SE8       30.33F
NEWBERRY       FAIR      32  21  63 S3        30.33S
S. S. MARIE    FAIR      43  21  41 E5        30.35F
MUNISING         N/A     40  21  46 S9        30.29F WCI  34
$$
MIZ004>006-011>014-085-230500-
CENTRAL UPPER MICHIGAN

CITY           SKY/WX    TMP DP  RH WIND       PRES   REMARKS
MANISTIQUE     FAIR      30  16  56 CALM      30.32F
ESCANABA       FAIR      29  22  75 W6        30.32F WCI  23
MENOMINEE      FAIR      35  30  82 CALM      30.32
SAWYER-GWINN   FAIR      40  19  43 S7        30.29S WCI  35
$$
MIZ001>003-009>011-084-230500-
WESTERN UPPER MICHIGAN

CITY           SKY/WX    TMP DP  RH WIND       PRES   REMARKS
IRON MOUNTAIN  FAIR      37  21  52 CALM      30.28F
HOUGHTON       FAIR      37  20  50 CALM      30.24F
COPPER HARBOR    N/A     41  24  51 N5G18     30.23S
IRONWOOD       FAIR      38  25  59 CALM      30.25F
$$

ABBREVIATIONS USED IN REMARKS
   TC - TEMPERATURE IN CELSIUS
  WCI - WIND CHILL INDEX
   HX - HEAT INDEX
  VSB - VISIBILITY





USA.gov is the U.S. government's official web portal to all federal, state and local government web resources and services.